TimeMST,TemperatureF,Dew PointF,Humidity,Sea Level PressureIn,VisibilityMPH,Wind Direction,Wind SpeedMPH,Gust SpeedMPH,PrecipitationIn,Events,Conditions,WindDirDegrees,DateUTC
12:52 AM,12.9,9.0,84,30.27,10.0,SW,3.5,-,N/A,,Overcast,230,2011-12-15 07:52:00
1:52 AM,12.9,10.0,88,30.27,10.0,NW,3.5,-,N/A,,Overcast,310,2011-12-15 08:52:00
2:52 AM,10.9,7.0,84,30.25,10.0,NNW,4.6,-,N/A,,Scattered Clouds,330,2011-12-15 09:52:00
3:52 AM,6.1,1.9,83,30.29,10.0,Calm,Calm,-,N/A,,Clear,0,2011-12-15 10:52:00
4:52 AM,3.0,-0.9,84,30.35,10.0,SW,3.5,-,N/A,,Clear,230,2011-12-15 11:52:00
5:17 AM,3.2,1.4,92,30.15,2.5,NNE,3.5,-,N/A,,Partly Cloudy,30,2011-12-15 12:17:00
5:20 AM,3.2,1.4,92,30.15,1.0,NE,4.6,-,N/A,,Mist,40,2011-12-15 12:20:00
5:27 AM,3.2,-0.4,85,30.16,0.5,NE,3.5,-,N/A,Fog,Light Freezing Fog,50,2011-12-15 12:27:00
5:52 AM,3.0,1.9,95,30.35,1.0,North,3.5,-,N/A,,Mostly Cloudy,360,2011-12-15 12:52:00
5:55 AM,1.4,1.4,100,30.16,1.2,North,3.5,-,N/A,,Scattered Clouds,360,2011-12-15 12:55:00
5:59 AM,1.4,-0.4,92,30.16,3.0,North,3.5,-,N/A,,Scattered Clouds,350,2011-12-15 12:59:00
6:20 AM,-0.4,-5.8,78,30.17,1.8,Calm,Calm,-,N/A,,Partly Cloudy,0,2011-12-15 13:20:00
6:30 AM,1.4,-4.0,78,30.18,4.0,NW,3.5,-,N/A,,Haze,310,2011-12-15 13:30:00
6:52 AM,-2.0,-7.1,79,30.43,9.0,Calm,Calm,-,N/A,,Clear,0,2011-12-15 13:52:00
7:10 AM,-2.2,-7.6,78,30.19,8.0,Calm,Calm,-,N/A,,Scattered Clouds,0,2011-12-15 14:10:00
7:15 AM,-2.2,-7.6,78,30.19,1.2,Calm,Calm,-,N/A,,Haze,0,2011-12-15 14:15:00
7:22 AM,-2.2,-5.8,85,30.19,0.2,Calm,Calm,-,N/A,Fog,Light Freezing Fog,0,2011-12-15 14:22:00
7:40 AM,-0.4,-5.8,78,30.20,2.0,SW,4.6,-,N/A,,Haze,220,2011-12-15 14:40:00
7:48 AM,1.4,-2.2,85,30.20,6.0,SW,3.5,-,N/A,,Haze,220,2011-12-15 14:48:00
7:52 AM,3.0,-0.9,84,30.43,6.0,SW,3.5,-,N/A,,Mostly Cloudy,220,2011-12-15 14:52:00
8:52 AM,10.0,7.0,87,30.40,10.0,Calm,Calm,-,N/A,,Clear,0,2011-12-15 15:52:00
9:52 AM,16.0,12.0,84,30.41,10.0,Calm,Calm,-,N/A,,Clear,0,2011-12-15 16:52:00
10:52 AM,19.9,12.9,74,30.38,10.0,ESE,3.5,-,N/A,,Clear,110,2011-12-15 17:52:00
11:52 AM,27.0,14.0,58,30.32,10.0,Variable,4.6,-,N/A,,Clear,0,2011-12-15 18:52:00
12:52 PM,26.1,16.0,66,30.30,10.0,Calm,Calm,-,N/A,,Clear,0,2011-12-15 19:52:00
1:52 PM,28.0,17.1,63,30.27,10.0,SW,5.8,-,N/A,,Clear,230,2011-12-15 20:52:00
2:52 PM,28.9,17.1,61,30.28,10.0,South,4.6,-,N/A,,Clear,190,2011-12-15 21:52:00
3:52 PM,26.1,16.0,66,30.33,10.0,WNW,5.8,-,N/A,,Clear,290,2011-12-15 22:52:00
4:52 PM,17.6,10.4,73,30.17,10.0,North,4.6,-,N/A,,Clear,360,2011-12-15 23:52:00
5:52 PM,12.9,8.1,81,30.45,10.0,NNE,4.6,-,N/A,,Clear,20,2011-12-16 00:52:00
6:52 PM,10.0,5.0,80,30.52,9.0,Calm,Calm,-,N/A,,Clear,0,2011-12-16 01:52:00
7:52 PM,5.0,1.9,87,30.54,10.0,West,3.5,-,N/A,,Clear,280,2011-12-16 02:52:00
8:52 PM,3.0,-0.9,84,30.52,10.0,WNW,3.5,-,N/A,,Clear,290,2011-12-16 03:52:00
9:52 PM,1.9,-2.0,83,30.51,10.0,West,3.5,-,N/A,,Clear,280,2011-12-16 04:52:00
10:52 PM,-0.0,-5.1,79,30.51,10.0,Calm,Calm,-,N/A,,Clear,0,2011-12-16 05:52:00
11:52 PM,-2.0,-7.1,79,30.49,10.0,SW,4.6,-,N/A,,Clear,220,2011-12-16 06:52:00